Terug naar catalogus

FENGYUN 1C DEB

ActiefSSO
NORAD 36267·DEBRIS·🇨🇳 China

Gelanceerd May 10, 1999 vanaf Taiyuan Satellite Launch Center

Loading…

Volgende Passages (komende 24 uur)

TLE

VersSource: Space-Track

Epoch: Sep 14, 2026, 07:43 UTC

1 36267U 99025DWU 26257.32175002  .00000985  00000-0  53920-3 0  9995
2 36267  98.5733 196.5776 0126139 145.6493   5.6629 14.10080863904121

Volg FENGYUN 1C DEB in realtime met AllMySat

Download on the App Store